Regional Weather Roundup
Issued by NWS

Home | Current Version | Previous Version | Text Only | Print | Product List | Glossary Off
Versions: 1 2 3 4 5 6 7 8 9 10 11 12 13 14 15 16 17 18 19 20 21 22 23 24 25 26 27 28 29 30 31 32 33 34 35 36 37 38 39 40 41 42 43 44 45 46 47 48 49 50

000
ASUS43 KOAX 060710
RWRNE

WEATHER ROUNDUP FOR NEBRASKA
NATIONAL WEATHER SERVICE OMAHA NE
100 AM CST FRI MAR 06 2015

NOTES: SATELLITE DATA IS BEING USED TO AUGMENT CLOUD COVER ABOVE
       12000 FEET.
       "FAIR" INDICATES FEW OR NO CLOUDS BELOW 12,000 FEET WITH NO
       SIGNIFICANT WEATHER AND/OR OBSTRUCTIONS TO VISIBILITY.

  * THESE STATIONS DO NOT REPORT WEATHER SUCH AS RAIN...SNOW OR FOG.

NEZ001>004-019>022-054>056-060800-
NEBRASKA PANHANDLE

CITY           SKY/WX    TMP DP  RH WIND       PRES   REMARKS
SCOTTSBLUFF    MOCLDY    27  21  78 NW5       30.21F WCI  22
ALLIANCE       PTCLDY    18  15  88 W7        30.19F WCI   9
CHADRON        MOCLDY    29  21  72 W9        30.19S WCI  20
KIMBALL        PTCLDY    28  20  72 W7        30.21F WCI  21
SIDNEY         PTCLDY    30  18  60 W12       30.23F WCI  20
$$

NEZ057>060-069>072-079>082-060800-
SOUTHWEST NEBRASKA

CITY           SKY/WX    TMP DP  RH WIND       PRES   REMARKS
NORTH PLATTE   CLEAR     18  10  71 NW7       30.22S WCI   9
IMPERIAL         N/A     28  16  60 W8        30.24F WCI  20
LEXINGTON      CLEAR     21  13  72 NW9       30.21S WCI  11
MCCOOK         CLEAR     31  18  58 W12       30.24F WCI  22
OGALLALA       CLEAR     22  17  80 W5        30.22S WCI  16
$$

NEZ005>010-023>029-035>040-094-060800-
NORTH CENTRAL NEBRASKA

CITY           SKY/WX    TMP DP  RH WIND       PRES   REMARKS
VALENTINE      CLEAR     24  19  81 SW7       30.15F WCI  16
AINSWORTH      CLEAR     25  18  76 W9        30.15F WCI  15
BROKEN BOW     CLEAR     27  12  53 NW5       30.18F WCI  22
O`NEILL        CLEAR     26  13  59 SW8       30.14F WCI  17
ORD            CLEAR     15   6  67 NW3       30.18S
THEDFORD       CLEAR     25  16  68 W5        30.19S WCI  19
$$

NEZ041-046>049-061>064-073>077-083>087-060800-
SOUTH CENTRAL NEBRASKA

CITY           SKY/WX    TMP DP  RH WIND       PRES   REMARKS
GRAND ISLAND   CLEAR     28   8  43 SW12      30.20F WCI  18
AURORA         CLEAR     25   9  50 SW10      30.19F WCI  14
HASTINGS       CLEAR     27   7  42 SW7       30.19F WCI  19
HEBRON         CLEAR     31  13  48 S18       30.24F WCI  19
HOLDREGE       CLEAR     32  12  44 W9        30.21F WCI  24
KEARNEY *      CLEAR     28  10  47 SW7       30.20F WCI  21
YORK           CLEAR     23  10  58 SW8       30.20F WCI  14
$$

NEZ011>018-030>034-042>045-060800-
NORTHEAST NEBRASKA

CITY           SKY/WX    TMP DP  RH WIND       PRES   REMARKS
NORFOLK        CLEAR     27   8  44 S12       30.16F WCI  17
ALBION         CLEAR     23   6  49 CALM      30.18F
BLAIR          CLOUDY    27  11  51 S15       30.23F WCI  15
COLUMBUS *     CLEAR     27   7  43 SW5       30.21F WCI  21
FREMONT        PTCLDY    25  12  56 SE10      30.22F WCI  15
TEKAMAH        CLOUDY    26  11  52 SE10      30.24F WCI  16
WAYNE          FAIR      25   8  48 SW8       30.18F WCI  16
$$

NEZ050>053-065>068-078-088>093-060800-
SOUTHEAST NEBRASKA

CITY           SKY/WX    TMP DP  RH WIND       PRES   REMARKS
LINCOLN        PTCLDY    26  14  60 S13       30.24F WCI  15
OMAHA EPPLEY   CLOUDY    26  11  52 S14       30.29F WCI  14
BEATRICE       PTCLDY    27  16  63 S13       30.26F WCI  16
FALLS CITY     MOCLDY    26  12  55 S14       30.34F WCI  14
NEBRASKA CITY  PTCLDY    25   9  52 S15       30.29F WCI  12
PLATTSMOUTH    CLOUDY    26  10  52 SE16      30.26F WCI  13
$$

NEZ044-045-051>053-067-060800-
OMAHA AREA

CITY           SKY/WX    TMP DP  RH WIND       PRES   REMARKS
OMAHA EPPLEY   CLOUDY    26  11  52 S14       30.29F WCI  14
BLAIR          CLOUDY    27  11  51 S15       30.23F WCI  15
FREMONT        PTCLDY    25  12  56 SE10      30.22F WCI  15
MILLARD        MOCLDY    27  12  53 SE9       30.27F WCI  18
OFFUTT AFB     MOCLDY    25  11  56 SE9       30.27F WCI  15
PLATTSMOUTH    CLOUDY    26  10  52 SE16      30.26F WCI  13
WAHOO          FAIR      23  10  58 SE8       30.23F WCI  14
$$


USA.gov is the U.S. government's official web portal to all federal, state and local government web resources and services.